Regional Weather Roundup
Issued by NWS

Home | Current Version | Previous Version | Text Only | Print | Product List | Glossary Off
Versions: 1 2 3 4 5 6 7 8 9 10 11 12 13 14 15 16 17 18 19 20 21 22 23 24 25 26 27 28 29 30 31 32 33 34 35 36 37 38 39 40 41 42 43 44 45 46 47 48 49 50

000
ASUS43 KFSD 110002
RWRSD

WEATHER ROUNDUP FOR SOUTH DAKOTA
NATIONAL WEATHER SERVICE SIOUX FALLS SD
600 PM CST SUN DEC 10 2017

NOTE: "FAIR" INDICATES FEW OR NO CLOUDS BELOW 12,000 FEET WITH NO
SIGNIFICANT WEATHER AND/OR OBSTRUCTIONS TO VISIBILITY.


SDZ001>005-009-010-012>017-110100-
NORTHWEST AND NORTH CENTRAL SOUTH DAKOTA

CITY           SKY/WX    TMP DP  RH WIND       PRES   REMARKS
BUFFALO          N/A     42  19  39 W14       30.04R
FAITH            N/A     43  16  33 W12       30.07F
MOBRIDGE       PTCLDY    37  28  70 NW3       29.99F
$$

SDZ012>016-024>037-041>051-057-063-072>074-110100-
SOUTHWEST AND SOUTH CENTRAL SOUTH DAKOTA

CITY           SKY/WX    TMP DP  RH WIND       PRES   REMARKS
RAPID CTY ARPT CLEAR     46   5  18 NW9       30.14R
PIERRE         PTCLDY    44  22  41 W6        30.04S
CUSTER         CLEAR     43   4  19 NW12G20   30.21R
ELLSWORTH AFB  CLEAR     49   6  17 W8        30.12F
PHILIP         CLEAR     48  13  24 W14       30.10R
PINE RIDGE     CLEAR     42  20  41 S7        30.18S
SPEARFISH      FAIR      50   9  18 W13       30.18R
WINNER         FAIR      48  17  29 W10G20    30.08R
$$

SDZ004>011-016>023-039-040-110100-
NORTHEAST SOUTH DAKOTA

CITY           SKY/WX    TMP DP  RH WIND       PRES   REMARKS
ABERDEEN       CLOUDY    31  25  78 SW3       30.01F
WATERTOWN      PTCLDY    32  28  85 SW6       30.00F WCI  26
BROOKINGS      CLOUDY    34  28  79 W7        30.04S WCI  28
SISSETON         N/A     34  25  69 E7        30.00F WCI  28
$$

SDZ017-020-022-023-036>040-048>070-110100-
SOUTHEAST SOUTH DAKOTA

CITY           SKY/WX    TMP DP  RH WIND       PRES   REMARKS
SIOUX FALLS    CLOUDY    35  28  75 W3        30.07R
HURON          CLOUDY    37  28  70 W3        30.04F
CHAMBERLAIN    CLOUDY    42  25  51 CALM      30.06S
MITCHELL       CLEAR     41  29  62 SW5       30.07S
YANKTON        CLEAR     36  24  62 SW3       30.09S
$$

ABBREVIATIONS USED IN REMARKS
   TC - TEMPERATURE IN CELSIUS
  WCI - WIND CHILL INDEX
   HX - HEAT INDEX
  VSB - VISIBILITY





USA.gov is the U.S. government's official web portal to all federal, state and local government web resources and services.